Location: Gro?
(45.7500°N, 22.9000°E)
Time: 21:36:43
(UTC+00:00)

Daily predictions for brighter satellites

Satellite Brightness Start Highest point End
(mag) Time Altitude Azimuth Time Altitude Azimuth Time Altitude Azimuth
Cosmos 1503 Rocket 4.1 15:08:16 10° S 15:13:27 67° ESE 15:18:37 10° NNE
Cosmos 2228 4.1 15:10:18 10° SSW 15:14:23 46° WNW 15:18:30 10° N
CZ-4C R/B 3.0 15:07:25 10° NW 15:14:28 79° NE 15:23:11 10° SE
Cosmos 1606 Rocket 4.4 15:10:49 10° SSE 15:14:43 31° E 15:18:38 10° NNE
NOSS 2-3 (D) 4.1 15:13:05 10° S 15:16:25 31° ESE 15:19:45 10° ENE
NOSS 2-3 (E) 4.0 15:13:38 10° S 15:17:00 34° ESE 15:20:25 10° NE
BREEZE-M DEB (TANK) 1.3 15:17:05 10° SW 15:18:39 42° SSE 15:20:38 10° ENE
BREEZE M DEB (TANK) 3.8 15:04:14 10° WNW 15:19:43 90° SSW 15:23:43 10° ESE
Thor Agena Rocket 3.7 15:14:45 10° SE 15:19:48 55° ENE 15:24:49 10° N
USA 238 DEB 4.3 15:15:39 10° S 15:20:58 34° ESE 15:26:44 10° NE
USA 238 4.3 15:15:46 10° S 15:21:06 33° ESE 15:26:50 10° NE
UNK 4.2 15:17:45 10° NNE 15:22:06 41° E 15:26:23 10° S
Lacrosse 5 rocket 3.1 15:19:50 10° NW 15:22:08 15° N 15:24:24 10° NNE
Cosmos 1544 Rocket 4.0 15:19:39 10° SSW 15:24:01 68° W 15:28:27 10° N
Cosmos 1354 Rocket 4.2 15:19:17 10° S 15:24:26 58° ESE 15:29:35 10° NNE
Cosmos 1484 Rocket 2.5 15:21:38 10° SSE 15:25:08 86° WSW 15:28:39 10° NNW
Cosmos 1777 Rocket 4.1 15:21:31 10° SSW 15:26:46 82° WNW 15:32:03 10° NNE
Cosmos 1743 2.6 15:26:11 10° NNW 15:29:25 70° W 15:32:38 10° S
IGS 5A 3.3 15:26:40 10° SSE 15:30:37 86° E 15:34:37 10° NNW
Gbstr 26 Del rocket 2.7 15:26:35 10° WSW 15:30:51 89° SE 15:34:27 11° ENE
MOS 1 Rocket 4.1 15:26:24 10° SE 15:30:52 34° ENE 15:35:34 10° N
USA 215 4.2 15:25:22 10° NE 15:31:11 36° N 15:37:01 10° WNW
Cosmos 2151 2.9 15:30:06 10° N 15:34:18 89° WSW 15:38:27 10° S
Cosmos 1900 4.5 15:29:17 10° NW 15:34:20 84° WSW 15:39:16 10° SSE
Cosmos 1726 Rocket 4.1 15:32:54 10° SSE 15:37:14 40° E 15:41:32 10° NNE
BREEZE-M DEB (TANK) 2.9 15:34:42 10° WNW 15:37:34 58° NNE 15:45:44 10° E
IRIDIUM 104 4.3 15:32:42 10° N 15:37:57 75° E 15:43:09 10° S
Meteor 1-20 Rocket 4.1 15:32:34 10° N 15:38:03 87° E 15:43:32 10° S
SMAP 3.0 15:35:40 10° SSE 15:40:16 67° ENE 15:44:55 10° N
Cosmos 2297 Rocket 3.1 15:34:56 10° NW 15:40:26 53° WSW 15:45:54 10° S
GEOS 3 Rocket 3.8 15:38:22 10° NE 15:43:43 63° SE 15:49:01 10° SSW
Landsat 7 3.8 15:39:53 10° SSE 15:44:26 57° ENE 15:49:01 10° N
Cosmos 2084 Rocket 4.4 15:40:43 10° NW 15:44:47 50° WSW 15:48:51 10° SSE
NOSS 7 (H) 4.2 15:42:10 10° NW 15:45:06 79° SW 15:48:24 10° SSE
Cosmos 1602 Rocket 4.0 15:42:11 10° NNW 15:46:31 64° W 15:50:47 10° S
IRIDIUM 114 4.3 15:41:50 10° N 15:47:05 90° NE 15:52:19 10° S
Cosmos 1805 4.4 15:45:42 10° NNE 15:47:57 17° ENE 15:50:11 10° ESE
YAOGAN 1 3.8 15:45:59 10° ESE 15:48:58 19° ENE 15:51:59 10° NNE
SL-16 R/B 3.1 15:45:15 10° N 15:51:23 62° WNW 15:57:27 10° SSW
Cosmos 990 Rocket 3.9 15:47:02 10° SSW 15:52:09 85° ESE 15:57:20 10° NNE
COSMOS 2455 4.3 15:49:51 10° SE 15:53:33 17° ESE 15:55:26 15° E
Okean 1-7 Rocket 3.7 15:49:37 10° N 15:54:01 80° W 15:58:21 10° S
BREEZE M DEB (TANK) 1.5 15:53:33 10° WSW 15:56:02 76° NNW 15:56:59 27° ENE
CZ-2D R/B 4.4 15:54:25 10° ESE 15:57:53 26° ENE 16:01:18 10° N
Cosmos 1461 4.3 15:55:07 10° WSW 15:58:33 29° NW 16:02:03 10° NNE
SKYMED 2 4.4 15:58:01 14° NE 16:01:10 30° E 16:05:00 10° SSE
CORIOLIS 4.4 15:56:12 10° S 16:01:31 75° WSW 16:06:53 10° NNW
Cosmos 1980 Rocket 2.3 15:57:09 10° S 16:02:40 56° ESE 16:07:35 13° NE
Cosmos 1844 Rocket 4.0 15:59:26 10° N 16:03:16 18° NE 16:04:08 17° NE
Cosmos 2219 3.5 15:58:08 10° NNW 16:03:39 45° ENE 16:09:08 10° SE
Okean 1 4.1 16:00:46 10° SE 16:03:40 23° E 16:04:05 23° ENE
Aureole 1 Rocket 3.5 16:01:46 10° S 16:06:08 54° ESE 16:11:23 11° NNE
SJ-6F 4.3 16:04:20 10° SSE 16:08:15 60° ENE 16:12:14 10° N
NOSS 3-2 (C) 4.1 16:05:35 10° WSW 16:10:29 43° NW 16:15:55 12° NNE
Cosmos 1953 Rocket 3.5 16:06:50 10° N 16:11:16 67° E 16:15:41 10° SSE
ARIANE 5 R/B 2.6 16:06:29 10° SSE 16:11:33 83° WSW 16:16:44 10° NNW
Cosmos 2263 Rocket 2.1 16:06:28 10° NNW 16:12:10 73° ENE 16:17:51 10° SSE
IRS-1C 4.2 16:07:01 10° SSE 16:12:20 84° WSW 16:17:42 10° NNW
PSLV R/B 4.3 16:13:45 26° ENE 16:13:45 26° ENE 16:17:06 10° N
Meteor 1-5 Rocket 4.1 16:11:13 10° N 16:16:37 89° W 16:22:09 10° S
Cosmos 1680 Rocket 4.3 16:14:25 10° N 16:18:54 28° ENE 16:20:04 26° E
Cosmos 1825 Rocket 4.1 16:14:51 10° NNW 16:19:07 58° W 16:23:20 10° S
Cosmos 2369 4.1 16:14:49 10° S 16:20:12 44° ESE 16:23:23 23° NE
Meteor 2-10 4.1 16:16:46 10° N 16:22:10 66° ENE 16:27:43 10° SSE
COSMO-SKYMED 1 3.1 16:22:48 32° E 16:23:23 33° E 16:27:06 10° SSE
SAR-Lupe-4 4.3 16:20:55 10° S 16:24:24 55° W 16:27:54 10° NNW
Cosmos 1076 Rocket 3.6 16:22:01 10° NNW 16:26:20 77° W 16:30:38 10° S
Cosmos 1655 Rocket 4.0 16:20:42 10° N 16:26:58 85° W 16:33:11 10° S
SOZ 4.3 16:24:43 10° W 16:26:58 41° NNW 16:26:58 41° NNW
USA 81 3.9 16:26:29 10° N 16:31:46 75° E 16:37:01 10° S
Cosmos 2227 Rocket 3.3 16:26:41 10° NW 16:32:05 47° WSW 16:37:27 10° S
Cosmos 44 Rocket 4.5 16:29:03 10° NNW 16:33:16 26° NE 16:33:16 26° NE
SPOT 1/Viking Rocket 3.4 16:30:12 10° SSE 16:35:23 79° ENE 16:40:37 10° N
Cosmos 1697 Rocket 4.0 16:37:13 10° WSW 16:42:22 37° NW 16:47:32 10° NNE
CENTAUR R/B 4.4 16:39:58 10° NW 16:44:54 20° N 16:48:31 15° NNE
Cosmos 2058 Rocket 3.1 16:41:16 10° S 16:45:44 82° W 16:49:15 17° N
NOSS 2-3 (C) 4.2 16:43:29 10° WSW 16:46:44 38° NW 16:47:48 30° N
Cosmos 2333 Rocket 3.9 16:45:41 10° SSE 16:47:30 17° SE 16:47:30 17° SE
Meteor 2-11 Rocket 4.4 16:45:04 10° N 16:51:09 58° ENE 16:57:11 10° SSE
Meteor 1-14 Rocket 4.4 16:51:17 10° N 16:56:29 46° ENE 16:56:29 46° ENE
MINOTAUR IV R/B 4.4 16:53:57 10° NNW 16:58:13 69° NE 16:58:13 69° NE
EXPRESS MD2 3.4 16:56:54 10° WSW 16:59:01 54° W 16:59:01 54° W
Lacrosse 5 rocket 3.4 16:57:53 10° NNW 16:58:51 14° NNW 16:58:51 14° NNW
Cosmos 2322 Rocket 4.4 16:57:02 10° SSE 16:57:11 11° SSE 16:57:11 11° SSE
Resurs 1-3 3.6 17:01:26 10° S 17:05:44 77° W 17:10:03 10° NNW
Cosmos-2242 3.8 17:04:53 10° SSW 17:09:00 48° WNW 17:11:23 23° NNW
Nadezhda 2 Rocket 4.5 17:04:35 10° N 17:10:43 79° W 17:16:48 10° S
USA 238 DEB 4.1 17:05:32 10° WSW 17:11:33 54° NW 17:14:48 29° NNE
USA 238 4.0 17:05:38 10° WSW 17:11:39 55° NW 17:14:55 29° NNE
Spot 4 Rocket 4.3 17:07:13 10° S 17:12:17 69° WSW 17:17:25 10° NNW
USA 215 4.0 17:12:07 34° NNE 17:13:13 36° N 17:19:04 10° NW
Cosmos 1898 Rocket 4.0 17:09:02 10° SW 17:14:05 55° WNW 17:16:31 29° N
Cosmos 1553 Rocket 4.0 17:08:49 10° SSW 17:14:59 78° W 17:21:18 10° N
S3M 4.2 17:09:24 10° SSE 17:14:31 48° ESE 17:14:31 48° ESE
Gbstr 26 Del rocket 4.2 17:13:48 10° WNW 17:16:29 30° NW 17:16:29 30° NW
IRAS Rocket 4.3 17:12:59 10° SSE 17:18:28 77° WSW 17:23:58 10° NNW
Cosmos 2082 4.1 17:15:06 10° NNW 17:20:45 63° WSW 17:26:23 10° S
Cosmos 2112 Rocket 4.4 17:15:35 10° NNW 17:19:27 49° N 17:19:27 49° N
YAOGAN 1 3.5 17:20:25 10° S 17:24:30 46° W 17:28:37 10° NNW
Meteor 2-6 Rocket 4.2 17:22:12 10° SSW 17:27:52 85° W 17:29:21 53° N
Cosmos 923 Rocket 4.4 17:24:23 10° NNW 17:29:31 61° WSW 17:32:38 23° S
Cosmos 1937 Rocket 4.0 17:24:34 10° SW 17:29:38 54° WNW 17:30:51 44° NNW
Cosmos 2237 4.2 17:24:35 10° SSW 17:30:19 80° WNW 17:30:55 71° N
SL-16 R/B 2.8 17:25:33 10° S 17:29:26 43° S 17:29:26 43° S
Cosmos 1745 Rocket 3.8 17:26:30 10° N 17:32:42 84° E 17:38:49 10° S
SL-24 R/B - RUBIN 2 4.1 17:29:58 10° SW 17:34:52 68° W 17:34:52 68° W
COSMOS 2455 2.7 17:32:37 10° SSW 17:38:36 86° WNW 17:38:36 86° WNW
BREEZE-M DEB (TANK) 3.8 17:24:33 10° WNW 17:43:30 85° SSW 17:44:18 71° SE
Cosmos 1980 Rocket 3.9 17:42:13 10° WSW 17:46:59 27° NW 17:49:21 21° NNW
Cosmos 1844 Rocket 3.6 17:42:18 10° NNW 17:45:49 40° NNW 17:45:49 40° NNW
Cosmos 2333 Rocket 4.4 18:28:09 10° SW 18:29:34 18° SW 18:29:34 18° SW
